STARLINK-30867, 58231

Orbit data source: Space-Track

STARLINK-30867, 58231 is a payload satellite owned by SpaceX/Seattle (US) in LEO that was launched on Wed, 08 Nov 2023 UTC via an FALCON 9 launch vehicle from the Air Force Eastern Test Range (AFETR). Payload-class satellites include a variety of spacecraft equipped with specific instruments for various scientific and technological missions. These include communications satellites like Starlink; space stations such as the ISS; scientific satellites like the Hubble; Earth observation satellites from companies like Planet Labs, Umbra, and HawkEye 360; GPS; miniature CubeSats for education and research; and military/defense satellites.

Loading next visibility...
Identifier
58231, 2023-171B
Orbit
LEO
Country
Flag of USUS
Related business
Manufacturer
SpaceX/Seattle
Mission
Operational Commercial Communications
Bus & Motor
STARLINK V2M, Unknown motor
Mass
730 kg wet, ~700 kg dry
Launch date (UTC)
2023-11-08 (3 years ago)
Launch vehicle
FALCON 9
Launch site
Air Force Eastern Test Range (AFETR)
Object type
Payload
Rocket body
Debris
Shape & HBR
Box + 2 Pan, 17.7 m
Radar Cross Section
33.884 m², Large (>1 m²)

Expand to show TLE details & history
Last TLE update: 2 days ago

TLE from 2 days ago
0 STARLINK-30867
1 58231U 23171B   26171.05504069  .00001165  00000-0  51848-4 0  9992
2 58231  43.0020  66.8192 0001564 262.2233  97.8441 15.27578172145398
Epoch: 2026-06-20T01:19Z
TLE epoch observation values (Epoch: 2026-06-20T01:19:15.515Z)
Latitude
-0.00003°
Longitude
138.72936°
Altitude
482.977 km
Speed
7.626 km/s
True Right ascension
04h 27m 16s
True Declination
0° 00' 00"
Sunlit
Object was in daylight at epoch
Visualization orbit readout
Latitude
Unknown
Longitude
Unknown
Altitude
Unknown
Speed
Unknown
Apparent Right ascension
Unknown
Apparent Declination
Unknown
Sunlit
N/A
Visualization observer readout
Local Sidereal Time
21:29:29
Azimuth
Unknown
Elevation
Unknown
Doppler factor
Unknown
Orbital elements
Apogee altitude
486.073 km
Perigee altitude
483.926 km
Semi-major axis
6,863.136 km
Eccentricity
0.00016
Inclination
43.002°
RAAN
66.8192°
Arg. of periapsis
262.2233°
True anomaly
97.86185°
Mean anomaly
97.8441°
Eccentric anomaly
97.85298°
Mean motion
3.81733 °/min
Orbital period
94.31 mins
BSTAR
0.000051848
Loading maneuver chart data...
Computing Atmospheric mass density...
Loading historical data...
Loading historical data...
Loading historical data...
Loading historical data...
Loading historical data...
Loading historical data...
Loading historical data...

Documentation

Showing up to 5 results
|